User: anonymous   Login
Location: Saint Peter Port
(49.4500°N, 2.5330°W)
Time: 18:32:54
(UTC+01:00)
Language:

Cosmos 2242 Rocket - Orbit

View from above orbital plane
View from above orbital plane
View from above satellite
View from above satellite

Ground track
Ground track

The orbit data is extracted from the following two-line orbital elements,

1 22627U 93024B   17293.71028185  .00000085  00000-0  85767-5 0  9992
2 22627  82.5231 343.5697 0021981 281.1479  78.7262 14.78095218320688
Epoch (UTC): 20 October 2017 17:02:48
Eccentricity: 0.0021981
inclination: 82.5231°
perigee height: 620 km
apogee height: 651 km
right ascension of ascending node: 343.5697°
argument of perigee: 281.1479°
revolutions per day: 14.78095218
mean anomaly at epoch: 78.7262°
orbit number at epoch: 32068

The dashed part of the orbit path shows where the satellite is in the earth's shadow,  

DLR